Total_Precipitation_Accumulation
0.16 0.22 0.50 0.65 0.69 0.65 0.61 0.55 0.49 0.46 0.47 0.50 0.49 0.45 0.43 0.43 0.41 0.37 0.37 0.41 0.53 0.66 0.73 0.77 0.83 0.88 0.87 0.75 0.54 0.34 0.25 0.23 0.19 0.16 0.16 0.18 0.22 0.27 0.27 0.27 0.29 0.38 0.47
0.15 0.24 0.51 0.67 0.72 0.62 0.58 0.55 0.51 0.49 0.49 0.53 0.60 0.56 0.50 0.48 0.51 0.51 0.49 0.52 0.61 0.70 0.76 0.82 0.90 0.91 0.83 0.64 0.43 0.28 0.15 0.11 0.08 0.04 0.04 0.07 0.14 0.22 0.22 0.21 0.22 0.38 0.46
0.21 0.31 0.52 0.71 0.71 0.67 0.61 0.54 0.50 0.50 0.54 0.59 0.63 0.65 0.59 0.56 0.57 0.63 0.64 0.63 0.66 0.69 0.76 0.84 0.85 0.82 0.71 0.49 0.31 0.23 0.14 0.10 0.07 0.04 0.06 0.12 0.20 0.31 0.29 0.24 0.31 0.41 0.46
0.29 0.36 0.52 0.73 0.77 0.74 0.67 0.58 0.55 0.57 0.59 0.67 0.73 0.76 0.76 0.72 0.70 0.68 0.68 0.66 0.64 0.64 0.66 0.67 0.59 0.55 0.48 0.36 0.28 0.22 0.16 0.11 0.08 0.07 0.13 0.19 0.28 0.47 0.45 0.38 0.38 0.40 0.43
0.46 0.47 0.65 0.84 0.92 0.88 0.79 0.70 0.65 0.67 0.69 0.72 0.81 0.90 0.93 0.92 0.84 0.76 0.69 0.64 0.59 0.55 0.46 0.42 0.39 0.36 0.32 0.28 0.25 0.19 0.13 0.09 0.07 0.08 0.12 0.20 0.36 0.64 0.53 0.44 0.43 0.45 0.45
0.60 0.65 0.85 1.05 1.14 1.13 0.97 0.86 0.81 0.78 0.78 0.79 0.83 0.91 1.00 1.07 1.03 0.88 0.71 0.56 0.49 0.45 0.40 0.32 0.30 0.31 0.27 0.24 0.20 0.17 0.13 0.09 0.07 0.08 0.12 0.19 0.36 0.64 0.53 0.47 0.43 0.44 0.46
0.64 0.77 0.98 1.24 1.34 1.35 1.22 1.09 1.05 1.00 0.95 0.92 0.92 0.96 1.02 1.04 0.97 0.86 0.66 0.51 0.46 0.45 0.42 0.34 0.31 0.31 0.29 0.25 0.19 0.16 0.13 0.09 0.07 0.09 0.13 0.21 0.39 0.63 0.56 0.49 0.44 0.44 0.43
0.69 0.88 1.12 1.41 1.48 1.48 1.43 1.30 1.26 1.25 1.20 1.13 1.08 1.09 1.09 1.06 0.94 0.82 0.69 0.58 0.50 0.47 0.47 0.41 0.36 0.33 0.32 0.27 0.22 0.18 0.13 0.09 0.07 0.08 0.11 0.18 0.35 0.52 0.47 0.41 0.40 0.41 0.41
0.97 1.11 1.31 1.55 1.66 1.71 1.60 1.44 1.37 1.34 1.32 1.25 1.18 1.11 1.03 0.97 0.91 0.81 0.68 0.62 0.57 0.53 0.53 0.47 0.41 0.37 0.34 0.31 0.27 0.19 0.12 0.09 0.08 0.09 0.10 0.14 0.29 0.44 0.41 0.39 0.40 0.42 0.42
1.39 1.48 1.59 1.67 1.70 1.72 1.66 1.52 1.45 1.38 1.37 1.38 1.30 1.08 0.93 0.86 0.89 0.82 0.64 0.59 0.56 0.54 0.54 0.49 0.44 0.39 0.35 0.30 0.24 0.18 0.13 0.12 0.09 0.08 0.10 0.13 0.25 0.38 0.40 0.42 0.41 0.43 0.44
1.88 1.82 1.86 1.87 1.87 1.85 1.79 1.65 1.64 1.55 1.45 1.41 1.34 1.10 0.95 0.93 0.87 0.81 0.63 0.50 0.50 0.51 0.50 0.50 0.45 0.40 0.32 0.26 0.21 0.19 0.18 0.15 0.12 0.13 0.14 0.18 0.30 0.43 0.46 0.47 0.43 0.44 0.45
2.12 2.04 1.99 1.97 1.90 1.93 1.88 1.83 1.88 1.73 1.55 1.40 1.21 1.13 1.06 0.97 0.87 0.73 0.66 0.56 0.52 0.49 0.51 0.55 0.52 0.46 0.35 0.25 0.22 0.21 0.19 0.17 0.16 0.15 0.16 0.24 0.40 0.52 0.52 0.49 0.45 0.47 0.46
2.22 2.27 2.23 2.19 2.08 1.97 2.02 1.91 1.89 1.86 1.70 1.55 1.32 1.23 1.20 1.17 1.05 0.92 0.81 0.78 0.70 0.58 0.56 0.55 0.56 0.44 0.31 0.24 0.21 0.19 0.18 0.19 0.18 0.17 0.17 0.24 0.40 0.54 0.58 0.57 0.53 0.51 0.49
2.48 2.47 2.48 2.42 2.35 2.14 2.04 1.99 1.97 1.90 1.77 1.62 1.39 1.29 1.27 1.18 1.08 0.96 0.82 0.77 0.75 0.59 0.57 0.54 0.48 0.40 0.33 0.27 0.22 0.20 0.19 0.20 0.18 0.20 0.20 0.21 0.34 0.48 0.59 0.64 0.61 0.56 0.54
2.74 2.75 2.71 2.55 2.49 2.38 2.19 2.03 2.02 2.05 1.94 1.77 1.62 1.41 1.27 1.15 1.00 0.94 0.87 0.85 0.79 0.68 0.59 0.55 0.47 0.44 0.41 0.35 0.28 0.23 0.21 0.20 0.19 0.19 0.20 0.20 0.25 0.37 0.52 0.63 0.72 0.72 0.70
2.92 3.04 3.02 2.84 2.61 2.51 2.30 2.03 1.97 2.09 2.12 2.10 1.86 1.57 1.48 1.35 1.18 1.06 0.99 0.95 0.87 0.78 0.70 0.62 0.54 0.52 0.50 0.46 0.38 0.29 0.26 0.24 0.23 0.22 0.22 0.22 0.23 0.26 0.39 0.57 0.74 0.82 0.81
2.85 3.12 3.24 3.12 2.94 2.69 2.52 2.28 2.04 2.13 2.20 2.21 2.09 1.86 1.72 1.62 1.48 1.33 1.21 1.08 0.94 0.87 0.85 0.82 0.77 0.70 0.63 0.56 0.49 0.42 0.34 0.30 0.27 0.24 0.23 0.23 0.23 0.24 0.31 0.46 0.62 0.74 0.77
2.85 2.98 3.27 3.28 3.20 3.03 2.78 2.54 2.23 2.13 2.17 2.13 2.04 1.96 1.84 1.71 1.62 1.53 1.33 1.20 1.14 1.10 1.04 1.00 0.95 0.87 0.75 0.64 0.56 0.55 0.47 0.38 0.33 0.32 0.30 0.27 0.24 0.22 0.25 0.36 0.45 0.54 0.66
2.81 2.92 3.17 3.30 3.30 3.34 3.22 3.01 2.65 2.32 2.29 2.25 2.09 1.91 1.84 1.76 1.67 1.60 1.44 1.30 1.30 1.26 1.17 1.09 1.06 0.98 0.89 0.79 0.72 0.67 0.64 0.53 0.47 0.45 0.43 0.40 0.35 0.30 0.29 0.34 0.37 0.40 0.49
3.01 3.14 3.21 3.38 3.55 3.70 3.73 3.52 3.24 2.78 2.46 2.37 2.24 2.01 1.86 1.77 1.71 1.65 1.56 1.45 1.36 1.39 1.35 1.26 1.15 1.09 1.02 0.94 0.87 0.81 0.79 0.73 0.61 0.57 0.54 0.50 0.48 0.43 0.40 0.40 0.39 0.37 0.39
3.06 3.26 3.37 3.38 3.54 3.83 3.70 3.41 3.14 2.86 2.61 2.40 2.32 2.22 2.02 1.88 1.76 1.67 1.55 1.55 1.51 1.42 1.39 1.39 1.38 1.34 1.25 1.20 1.18 1.02 0.86 0.82 0.76 0.64 0.60 0.57 0.55 0.54 0.50 0.49 0.46 0.43 0.42
2.80 3.16 3.23 3.42 3.58 3.76 3.65 3.46 3.33 3.21 2.99 2.72 2.60 2.36 2.19 2.02 1.86 1.76 1.62 1.49 1.52 1.53 1.46 1.44 1.46 1.51 1.52 1.51 1.50 1.45 1.23 1.02 0.82 0.66 0.62 0.61 0.61 0.64 0.66 0.63 0.58 0.54 0.51
2.28 2.74 2.94 3.08 3.38 3.57 3.71 3.96 3.90 3.71 3.33 2.83 2.55 2.43 2.28 2.26 2.13 1.91 1.84 1.72 1.56 1.55 1.50 1.43 1.37 1.36 1.43 1.52 1.56 1.66 1.53 1.22 0.95 0.80 0.68 0.62 0.61 0.63 0.65 0.67 0.65 0.62 0.58
1.88 2.31 2.70 2.93 3.15 3.29 3.39 3.60 3.70 3.52 3.14 2.71 2.45 2.47 2.51 2.45 2.42 2.29 2.11 2.00 1.83 1.70 1.61 1.57 1.55 1.49 1.46 1.46 1.47 1.44 1.39 1.25 1.19 1.05 0.84 0.74 0.67 0.65 0.67 0.67 0.63 0.63 0.66
1.63 2.04 2.42 2.70 2.95 3.06 3.11 3.19 3.38 3.44 3.30 3.09 2.79 2.64 2.62 2.57 2.48 2.39 2.28 2.18 2.02 1.89 1.82 1.79 1.72 1.69 1.66 1.57 1.50 1.43 1.39 1.24 1.12 1.14 0.99 0.81 0.78 0.74 0.73 0.73 0.70 0.69 0.70
1.43 1.73 2.09 2.37 2.70 2.90 2.93 3.10 3.17 3.13 3.19 3.13 2.82 2.71 2.63 2.68 2.61 2.45 2.29 2.21 2.13 2.04 1.96 1.94 1.93 1.86 1.77 1.69 1.65 1.58 1.56 1.49 1.28 1.24 1.16 0.96 0.90 0.83 0.81 0.80 0.81 0.81 0.81